Tracking 29892 objects as of 21-Nov-2024
HD Live streaming from Space Station
objects crossing your sky now

STARLINK-31680

Track STARLINK-31680 now!
10-day predictions
STARLINK-31680 is classified as:


NORAD ID: 59380
Int'l Code: 2024-062G
Perigee: 481.4 km
Apogee: 483.4 km
Inclination: 53.2 °
Period: 94.1 minutes
Semi major axis: 6853 km
RCS: Unknown
Launch date: April 2, 2024
Source: United States (US)
Launch site: AIR FORCE WESTERN TEST RANGE (AFWTR)
Your satellite tracking list
Your tracking list is empty




NASA's NSSDC Master Catalog

Two Line Element Set (TLE):
1 59380U 24062G   24325.91010175  .00001349  00000-0  57708-4 0  9997
2 59380  53.1615 299.1640 0001405 103.0042 257.1115 15.30180755 36768
Source of the keplerian elements: AFSPC